[[{"header":{"parameterUnit":"m.s-1","parameterCategory":1,"la1":30.2991,"la2":30.254,"lo1":-89.0895,"lo2":-89.0444,"dy":0.0017,"dx":0.0017,"nx":28,"ny":28,"refTime":"2023-08-24T21:00:00:Z","depth":0,"parameterNumber":2,"parameterNumberName":"U-component_of_WINDS"},"data":[0,0,0,0,0,0,0,0,0,0,0,0,0,0,0,0,0,0,0,0,0,0,0,0,0,0,0,0,0,0,0,0,0,0,0,0,0,0,0,0,0,0,0,0,0,0,0,0,0,0,0,0,0,0,0,0,0,0,1.8633,1.8635,0,1.8796,1.8798,1.88,1.886,1.8859,1.8858,1.8858,1.9024,1.9029,1.9034,0,0,0,0,0,0,0,0,0,0,0,0,0,1.8371,1.8376,1.8633,1.8635,1.8637,1.8796,1.8798,1.88,1.886,1.8859,1.8858,1.8858,1.9023,1.9028,1.9034,0,0,0,0,0,0,0,0,0,0,0,0,0,1.8505,1.8377,1.8632,1.8686,1.8692,1.8795,1.8798,1.8801,1.886,1.8859,1.8858,1.8857,1.9021,1.9028,1.9035,1.9097,0,0,1.9058,1.9061,0,0,0,0,0,0,0,0,1.8497,1.8514,1.8676,1.8682,1.869,1.8807,1.8767,1.89,1.886,1.8796,1.8858,1.8857,1.8952,1.8965,1.8998,1.9105,1.9112,1.9058,1.9063,1.9066,1.9068,0,0,0,0,0,0,0,1.8488,1.8507,1.8697,1.8678,1.8686,1.8701,1.8719,1.8792,1.8877,1.8802,1.8806,1.8825,1.8956,1.899,1.9002,1.9114,1.9058,1.9065,1.9069,1.9072,1.9279,1.928,0,0,0,0,0,0,1.847,1.8499,1.8692,1.8702,1.8589,1.8706,1.8727,1.877,1.8876,1.8892,1.8825,1.8827,1.8978,1.8993,1.9008,1.9087,1.9066,1.9073,1.9077,1.9278,1.9279,1.928,0,0,0,0,0,0,1.8464,1.8486,1.8685,1.8602,1.8629,1.8712,1.876,1.8773,1.8808,1.8894,1.8909,1.8845,1.8978,1.8998,1.9074,1.9093,1.9076,1.9083,1.9277,1.9278,1.928,1.9244,0,0,0,0,0,0,1.8456,1.8484,1.8508,1.8602,1.8633,1.8749,1.8761,1.8777,1.8821,1.8824,1.8917,1.8931,1.8979,1.9063,1.9081,1.9103,1.9089,1.9275,1.9277,1.9279,1.9244,1.9244,1.9245,0,0,0,0,0,1.8447,1.8492,1.8509,1.8532,1.8665,1.875,1.8767,1.8822,1.8822,1.8847,1.8902,1.8928,1.9088,1.907,1.9092,1.9116,1.9274,1.9277,1.9279,1.9244,1.9244,1.9245,0,0,0,0,0,0,1.8398,1.8505,1.8526,1.8603,1.8667,1.876,1.8793,1.8821,1.8886,1.8886,1.8951,1.8971,1.9042,1.9087,1.9065,1.9181,1.9183,1.919,1.9149,1.915,1.915,1.9138,1.9095,0,0,0,0,0,1.8396,1.8457,1.8547,1.8606,1.8637,1.871,1.8749,1.8785,1.8854,1.8881,1.8942,1.9007,1.9072,1.9114,1.9178,1.9251,1.9272,1.9278,1.9278,1.9278,1.9283,1.9324,1.9328,1.9288,1.9288,1.9288,0,0,1.8393,1.8459,1.8494,1.8598,1.8652,1.8712,1.8732,1.8795,1.884,1.8891,1.8966,1.9013,1.909,1.9165,1.9201,1.9204,1.9299,1.9281,1.9281,1.9286,1.9327,1.9331,1.9334,1.929,1.929,1.9289,0,0,1.8419,1.8475,1.853,1.8584,1.8665,1.8713,1.8726,1.8815,1.8848,1.8925,1.8964,1.9018,1.9129,1.9182,1.9224,1.9269,1.9295,1.9288,1.9289,1.9328,1.9332,1.9335,1.935,1.9354,1.9293,1.9293,1.9293,0,1.8404,1.8497,1.8555,1.8616,1.8661,1.8709,1.8765,1.8814,1.8912,1.8941,1.8944,1.9084,1.9139,1.9226,1.9237,1.9269,1.9286,1.9277,1.9326,1.933,1.9334,1.9349,1.9355,1.9291,1.9291,1.9291,1.9292,0,1.8476,1.8539,1.8574,1.8668,1.8716,1.8774,1.884,1.8882,1.8914,1.8961,1.9039,1.9107,1.9186,1.9209,1.9241,1.9301,1.9301,1.9314,1.9317,1.9335,1.935,1.9357,1.9289,1.929,1.929,1.929,0,0,1.8475,1.8599,1.8611,1.8654,1.8747,1.8797,1.8857,1.8934,1.8968,1.9034,1.9086,1.9178,1.9191,1.9238,1.9276,1.9311,1.9341,1.932,1.9323,1.9321,1.941,1.9398,1.9404,1.9359,1.936,1.9361,1.9403,0,1.8511,1.8621,1.8675,1.8761,1.882,1.8866,1.8919,1.8981,1.9026,1.9083,1.9133,1.9197,1.921,1.9239,1.9275,1.9329,1.9359,1.9327,1.9406,1.9409,1.9385,1.9412,1.9401,1.9437,1.9409,1.941,1.9411,0,1.8569,1.8635,1.8727,1.8812,1.8839,1.8885,1.896,1.9013,1.9085,1.9115,1.9167,1.9205,1.9269,1.9268,1.9357,1.9334,1.937,1.9401,1.9404,1.9413,1.941,1.9421,1.945,1.9455,1.9421,1.942,1.942,0,1.8558,1.8669,1.8739,1.8774,1.8876,1.8907,1.895,1.9021,1.9064,1.9129,1.9157,1.9229,1.9268,1.9323,1.9378,1.9373,1.9461,1.9466,1.9488,1.9487,1.9504,1.9502,1.9538,1.9528,1.9528,1.9528,1.9528,0,1.8593,1.8647,1.8735,1.8777,1.8839,1.89,1.8959,1.9007,1.9069,1.9121,1.9166,1.9213,1.9284,1.9341,1.9384,1.9451,1.9468,1.9495,1.9505,1.949,1.9487,1.9514,1.9513,1.953,1.9529,1.9529,1.9529,0,1.8591,1.8652,1.873,1.882,1.8844,1.8885,1.8962,1.9005,1.9053,1.9118,1.9137,1.9211,1.928,1.9341,1.9432,1.9461,1.9529,1.9543,1.9505,1.9511,1.953,1.9527,1.9584,1.9594,1.9577,1.9578,1.9578,0,1.8609,1.8651,1.8746,1.8784,1.8827,1.8888,1.8932,1.8993,1.9037,1.9121,1.9154,1.9226,1.9287,1.9394,1.9456,1.9526,1.9541,1.9557,1.9552,1.9535,1.9541,1.9537,1.9542,1.9556,1.9556,1.9556,1.9556,0,1.8634,1.8662,1.8724,1.8796,1.8847,1.8907,1.8968,1.8997,1.9069,1.9116,1.9187,1.9234,1.9327,1.9397,1.9474,1.9519,1.9549,1.9557,1.9566,1.955,1.9526,1.9539,1.9504,1.9555,1.9555,1.9555,1.9555,1.9555,1.8642,1.8682,1.8754,1.8822,1.8874,1.893,1.8974,1.9028,1.9088,1.9168,1.9201,1.9273,1.9343,1.9448,1.9493,1.955,1.9555,1.9568,1.9571,1.9574,1.957,1.9517,1.9564,1.9564,1.9564,1.9564,1.9564,0,1.8669,1.8718,1.8779,1.8863,1.8916,1.894,1.9009,1.9051,1.9114,1.9177,1.9235,1.9316,1.9385,1.9453,1.9525,1.9557,1.9573,1.9574,1.9572,1.9582,1.9562,1.9547,1.956,1.956,1.956,1.956,1.956,1.956,1.8689,1.8757,1.8794,1.8888,1.8937,1.9008,1.9045,1.9097,1.9147,1.9236,1.9293,1.9337,1.9401,1.9479,1.9542,1.9561,1.9585,1.9582,1.9603,1.9584,1.9583,1.9583,1.9569,1.9587,1.9587,1.9619,1.9619,1.9619]},{"header":{"parameterUnit":"m.s-1","parameterCategory":1,"la1":30.2991,"la2":30.254,"lo1":-89.0895,"lo2":-89.0444,"dy":0.0017,"dx":0.0017,"nx":28,"ny":28,"refTime":"2023-08-24T21:00:00:Z","depth":0,"parameterNumber":3,"parameterNumberName":"V-component_of_WINDS"},"data":[0,0,0,0,0,0,0,0,0,0,0,0,0,0,0,0,0,0,0,0,0,0,0,0,0,0,0,0,0,0,0,0,0,0,0,0,0,0,0,0,0,0,0,0,0,0,0,0,0,0,0,0,0,0,0,0,0,0,4.0593,4.0592,0,4.0542,4.0541,4.0541,4.0478,4.0477,4.0476,4.0475,4.042,4.042,4.0419,0,0,0,0,0,0,0,0,0,0,0,0,0,4.0633,4.0632,4.0593,4.0592,4.0591,4.0542,4.0541,4.0541,4.0478,4.0477,4.0475,4.0474,4.042,4.042,4.0419,0,0,0,0,0,0,0,0,0,0,0,0,0,4.0602,4.0632,4.0593,4.0554,4.055,4.0542,4.0541,4.0541,4.0478,4.0477,4.0475,4.0474,4.0421,4.042,4.0419,4.0444,0,0,4.0417,4.0416,0,0,0,0,0,0,0,0,4.0604,4.0601,4.056,4.0557,4.0552,4.0515,4.0535,4.0508,4.0478,4.0505,4.0475,4.0473,4.0453,4.0449,4.0443,4.0442,4.0439,4.0417,4.0416,4.0416,4.0416,0,0,0,0,0,0,0,4.0606,4.0602,4.0572,4.056,4.0555,4.0539,4.0533,4.053,4.0488,4.0503,4.0498,4.0493,4.045,4.0444,4.0441,4.0438,4.0417,4.0416,4.0415,4.0415,4.0455,4.0457,0,0,0,0,0,0,4.0614,4.0605,4.0574,4.0571,4.0575,4.0539,4.0532,4.0528,4.0488,4.048,4.0495,4.049,4.0446,4.0442,4.0439,4.0465,4.0416,4.0415,4.0415,4.0454,4.0455,4.0457,0,0,0,0,0,0,4.0615,4.0612,4.0576,4.0586,4.0581,4.054,4.0536,4.0528,4.0522,4.0482,4.0473,4.0496,4.0445,4.044,4.0444,4.0463,4.0415,4.0414,4.0452,4.0454,4.0456,4.0519,0,0,0,0,0,0,4.0617,4.0613,4.0622,4.0587,4.058,4.0582,4.0537,4.0528,4.0521,4.0515,4.0481,4.0474,4.0443,4.0445,4.0443,4.0461,4.0413,4.045,4.0453,4.0456,4.0515,4.0523,4.053,0,0,0,0,0,4.0618,4.0641,4.0623,4.062,4.0592,4.0584,4.058,4.0545,4.0523,4.0531,4.0506,4.0475,4.0461,4.0446,4.0443,4.0461,4.0448,4.0452,4.0455,4.0511,4.0521,4.053,0,0,0,0,0,0,4.0679,4.0636,4.0615,4.0628,4.061,4.0573,4.0583,4.0556,4.0544,4.0539,4.0495,4.0488,4.0497,4.0479,4.0463,4.0483,4.045,4.0453,4.0494,4.0503,4.051,4.0514,4.0413,0,0,0,0,0,4.0694,4.0692,4.0654,4.0669,4.0661,4.0624,4.0619,4.0594,4.0573,4.0565,4.054,4.052,4.0511,4.0506,4.0496,4.0512,4.0504,4.0523,4.0531,4.0537,4.054,4.0547,4.0555,4.0468,4.0468,4.0468,0,0,4.0724,4.07,4.0701,4.068,4.0663,4.0661,4.0618,4.0617,4.0615,4.0564,4.0566,4.0547,4.0523,4.0533,4.0536,4.0518,4.0562,4.0542,4.0547,4.0546,4.0551,4.0559,4.0567,4.0471,4.047,4.047,0,0,4.0778,4.0761,4.0771,4.0755,4.0731,4.0706,4.0709,4.0676,4.0662,4.0663,4.0625,4.0622,4.0608,4.0592,4.0582,4.0632,4.0602,4.063,4.0668,4.0676,4.0682,4.0688,4.0705,4.0712,4.0633,4.0633,4.0633,0,4.0818,4.0815,4.0779,4.0781,4.0773,4.0728,4.0738,4.0724,4.0698,4.0692,4.0674,4.0656,4.0636,4.0641,4.0654,4.0647,4.0648,4.0632,4.0684,4.069,4.0695,4.071,4.0717,4.0636,4.0636,4.0635,4.0635,0,4.0865,4.0863,4.0874,4.0851,4.0844,4.085,4.0814,4.0811,4.0788,4.0765,4.0767,4.0742,4.0726,4.0726,4.0702,4.0728,4.0718,4.0693,4.0658,4.0707,4.0721,4.0727,4.0641,4.064,4.0639,4.0638,0,0,4.0954,4.0912,4.0916,4.0905,4.0876,4.0873,4.0877,4.0863,4.0861,4.0844,4.0846,4.0836,4.0813,4.0801,4.0775,4.0782,4.0822,4.0756,4.0754,4.0768,4.0849,4.0867,4.0875,4.0803,4.0804,4.0805,4.085,0,4.1002,4.1007,4.0975,4.0988,4.0986,4.0944,4.0948,4.093,4.0909,4.0903,4.088,4.0874,4.0844,4.0837,4.0842,4.0817,4.0838,4.0813,4.0803,4.0803,4.081,4.0882,4.0901,4.0945,4.0856,4.0857,4.0857,0,4.1057,4.1045,4.1058,4.1029,4.1026,4.103,4.1014,4.101,4.0989,4.0973,4.0962,4.0933,4.0934,4.0903,4.0903,4.0887,4.0882,4.0869,4.087,4.0866,4.0832,4.0879,4.0958,4.0964,4.0866,4.0865,4.0864,0,4.112,4.1107,4.1113,4.1105,4.107,4.1074,4.106,4.1037,4.1031,4.1017,4.1012,4.0999,4.0991,4.0981,4.0948,4.0929,4.0953,4.0919,4.0939,4.094,4.0944,4.0944,4.1022,4.0943,4.0943,4.0943,4.0943,0,4.1175,4.1185,4.114,4.1144,4.1153,4.1117,4.1127,4.1109,4.109,4.1088,4.1052,4.1051,4.101,4.1004,4.0979,4.0983,4.098,4.0967,4.096,4.0969,4.0971,4.0964,4.0959,4.0944,4.0944,4.0944,4.0943,0,4.1246,4.1217,4.122,4.1188,4.1181,4.1189,4.1161,4.1163,4.1141,4.114,4.1137,4.1102,4.1094,4.1061,4.1045,4.1028,4.104,4.1027,4.1047,4.1043,4.1064,4.1062,4.1139,4.1147,4.1064,4.1065,4.1066,0,4.1283,4.1289,4.1258,4.1255,4.1243,4.1239,4.1232,4.1198,4.1192,4.1169,4.1174,4.1163,4.1152,4.1142,4.1114,4.1101,4.1087,4.1115,4.1085,4.1094,4.1086,4.1086,4.1086,4.1121,4.1122,4.1123,4.1124,0,4.1351,4.1336,4.1329,4.1316,4.131,4.1299,4.1285,4.1284,4.1245,4.1241,4.1233,4.1225,4.121,4.1199,4.1182,4.1167,4.1138,4.1134,4.1137,4.1146,4.1158,4.1151,4.1064,4.1132,4.1131,4.113,4.113,4.1129,4.1404,4.1408,4.1387,4.138,4.1366,4.1355,4.1355,4.1333,4.1326,4.1312,4.1291,4.1286,4.1265,4.124,4.1226,4.1221,4.1205,4.1211,4.1212,4.1213,4.1218,4.116,4.1218,4.1218,4.1217,4.1217,4.1217,0,4.1469,4.1454,4.1448,4.1431,4.1425,4.1401,4.1385,4.1382,4.1378,4.1361,4.1352,4.1343,4.1333,4.1305,4.1292,4.1293,4.128,4.1291,4.129,4.1287,4.1233,4.1231,4.1302,4.1302,4.1302,4.1302,4.1302,4.1302,4.1502,4.1507,4.1491,4.1489,4.1473,4.1469,4.1461,4.145,4.1437,4.1429,4.1421,4.1403,4.1382,4.1367,4.1357,4.1349,4.1345,4.1361,4.1348,4.1299,4.129,4.1283,4.128,4.136,4.1361,4.1402,4.1402,4.1403]}]]